This is the latest recevied weather packets stored in our database for station/object N4QD-13. If no packets are shown the sender has not sent any weather packets the latest 10 day(s).
| Time | Temp. | Humidity | Pressure | Rain* | Wind** | Luminosity | Snow |
|---|---|---|---|---|---|---|---|
| 1777324775 | 21.67° C | 50% | 1022.6 hPa | 0 mm | - | 368 W/m² | - |
| 1777324473 | 21.11° C | 50% | 1022.9 hPa | 0 mm | - | 380 W/m² | - |
| 1777324170 | 22.22° C | 51% | 1022.7 hPa | 0 mm | - | 434 W/m² | - |
| 1777323868 | 21.67° C | 49% | 1022.7 hPa | 0 mm | - | 434 W/m² | - |
| 1777323564 | 21.67° C | 49% | 1023 hPa | 0 mm | - | 476 W/m² | - |
| 1777323262 | 21.11° C | 49% | 1023 hPa | 0 mm | - | 526 W/m² | - |
| 1777322959 | 22.22° C | 49% | 1022.9 hPa | 0 mm | - | 562 W/m² | - |
| 1777322658 | 21.67° C | 50% | 1023.1 hPa | 0 mm | - | 542 W/m² | - |
| 1777322355 | 20.56° C | 50% | 1022.9 hPa | 0 mm | - | 591 W/m² | - |
| 1777322052 | 21.11° C | 49% | 1023 hPa | 0 mm | - | 602 W/m² | - |
| 1777321748 | 21.11° C | 51% | 1023.1 hPa | 0 mm | - | 635 W/m² | - |
| 1777321445 | 21.11° C | 49% | 1023.1 hPa | 0 mm | - | 657 W/m² | - |
| 1777321142 | 20.56° C | 51% | 1023.2 hPa | 0 mm | - | 652 W/m² | - |
| 1777320840 | 20.56° C | 53% | 1023.3 hPa | 0 mm | - | 677 W/m² | - |
| 1777320536 | 20.56° C | 51% | 1023.2 hPa | 0 mm | - | 659 W/m² | - |
| 1777320234 | 20.56° C | 51% | 1023.3 hPa | 0 mm | - | 707 W/m² | - |
| 1777319930 | 21.11° C | 49% | 1023.3 hPa | 0 mm | - | 729 W/m² | - |
| 1777319628 | 20.56° C | 48% | 1023.5 hPa | 0 mm | - | 767 W/m² | - |
| 1777319324 | 20.56° C | 52% | 1023.5 hPa | 0 mm | - | 766 W/m² | - |
| 1777319022 | 20.56° C | 50% | 1023.8 hPa | 0 mm | - | 790 W/m² | - |
| 1777318718 | 20.56° C | 49% | 1023.5 hPa | 0 mm | - | 786 W/m² | - |
| 1777318414 | 20° C | 50% | 1023.5 hPa | 0 mm | - | 790 W/m² | - |
| 1777318111 | 20° C | 52% | 1023.6 hPa | 0 mm | - | 819 W/m² | - |
| 1777317809 | 20° C | 53% | 1023.6 hPa | 0 mm | - | 811 W/m² | - |
| 1777317505 | 20° C | 52% | 1023.7 hPa | 0 mm | - | 826 W/m² | - |
* Rain latest hour (hover to see other rain measurements)
** Current wind speed in m/s (hover to see current wind gust speed)